Location: B
(0.0000°N, 0.0000°E)
Time: 05:21:17
(UTC+02:00)

ISS - All Passes

Search period start: 30 April 2016 00:00
Search period end: 10 May 2016 00:00
Orbit: 402 x 405 km, 51.6° (Epoch: 29 April)

Date Brightness Start Highest point End Pass type
(mag) Time Alt. Az. Time Alt. Az. Time Alt. Az.
30 Apr - 06:23:02 10° SSE 06:24:56 15° SE 06:26:49 10° E visible
30 Apr - 07:59:03 10° W 08:01:11 16° NW 08:03:19 10° NNW daylight
30 Apr - 19:32:08 10° WNW 19:34:56 26° SW 19:37:43 10° S daylight
01 May - 07:05:39 10° SW 07:08:47 44° NW 07:11:54 10° NNE visible
01 May - 18:39:16 10° NW 18:42:31 80° SW 18:45:47 10° SSE daylight
02 May - 06:13:09 10° SSW 06:16:23 56° SE 06:19:34 10° NE visible
02 May - 17:47:10 10° N 17:50:06 32° NE 17:53:04 10° ESE daylight
03 May - 05:21:29 10° S 05:23:56 20° SE 05:26:24 10° ENE visible
03 May - 06:58:52 10° WNW 07:00:12 12° NW 07:01:32 10° NNW visible
03 May - 16:56:14 10° NNE 16:57:40 12° NE 16:59:06 10° E daylight
03 May - 18:31:31 10° WNW 18:33:55 19° SW 18:36:21 10° S daylight
04 May - 06:04:49 10° WSW 06:07:46 31° NW 06:10:41 10° N visible
04 May - 17:38:17 10° NW 17:41:29 54° SW 17:44:41 10° SSE daylight
05 May - 05:12:03 10° SSW 05:15:19 83° SE 05:18:34 10° NE night (unlit)
05 May - 16:45:55 10° NNW 16:49:02 45° NE 16:52:11 10° SE daylight
06 May - 04:20:02 10° S 04:22:52 27° SE 04:25:41 10° ENE night (unlit)
06 May - 15:54:25 10° NNE 15:56:35 17° NE 15:58:45 10° E daylight
06 May - 17:31:00 10° W 17:32:50 14° SW 17:34:41 10° SSW daylight
07 May - 03:29:40 10° SE 03:30:23 11° SE 03:31:06 10° ESE night (unlit)
07 May - 05:04:01 10° WSW 05:06:39 22° NW 05:09:16 10° N night (unlit)
07 May - 16:37:18 10° NW 16:40:21 37° SW 16:43:24 10° SSE daylight
08 May - 04:10:56 10° SW 04:14:11 67° NW 04:17:25 10° NNE night (unlit)
08 May - 15:44:39 10° NNW 15:47:53 67° NE 15:51:07 10° SE daylight
09 May - 03:18:39 10° SSW 03:21:43 37° SE 03:24:45 10° NE night (unlit)
09 May - 14:52:47 10° N 14:55:24 22° NE 14:58:02 10° ESE daylight
09 May - 16:31:00 10° WSW 16:31:40 10° SW 16:32:20 10° SW daylight
